This demonstration page uses our WeatherBlox Daily Observations layout. Learn more.

Left ArrowRight Arrow

Hourly Observations for July 15, 2021

Temp ( °F °C ) Dew Point ( °F °C ) Humidity (%) Winds ( mph kmh ) Pressure ( in mb ) Visibility ( mi km ) Precip ( " mm )
12:15 am 00:15 Clear 65 18.6 64 17.5 93 93 N 5 7 29.97 1015 10 16 N/A
12:35 am 00:35 Clear 65 18.3 64 17.5 95 95 N N/A 29.98 1015 10 16 N/A
12:55 am 00:55 Partly Cloudy 65 18.3 64 17.5 95 95 NE 3 6 29.98 1015 10 16 N/A
1:15 am 01:15 Cloudy 66 18.7 64 17.7 94 94 N 3 6 29.96 1015 10 16 N/A
1:35 am 01:35 Mostly Cloudy 66 18.7 64 17.7 94 94 ENE 3 6 29.96 1015 10 16 N/A
1:55 am 01:55 Mostly Cloudy 65 18.6 64 17.5 93 93 NE 5 7 29.96 1015 10 16 N/A
2:15 am 02:15 Cloudy 66 18.7 64 17.7 94 94 N 5 7 29.96 1015 10 16 N/A
2:35 am 02:35 Cloudy 66 18.9 64 17.8 93 93 NE 5 7 29.96 1015 10 16 N/A
2:55 am 02:55 Partly Cloudy 65 18.5 64 17.6 95 95 NNE 6 9 29.96 1015 10 16 N/A
3:15 am 03:15 Partly Cloudy 65 18.6 64 17.5 93 93 NNE 8 13 29.95 1014 10 16 N/A
3:35 am 03:35 Mostly Cloudy 65 18.6 64 17.5 93 93 ENE 6 9 29.95 1014 10 16 N/A
3:55 am 03:55 Cloudy 66 18.9 64 17.5 92 92 NE 6 9 29.95 1014 10 16 N/A
4:15 am 04:15 Cloudy 66 18.9 64 17.5 92 92 NE 6 9 29.95 1014 10 16 N/A
4:35 am 04:35 Cloudy 66 18.7 64 17.5 93 93 NE 7 11 29.94 1014 10 16 N/A
4:55 am 04:55 Partly Cloudy 65 18.2 63 17.3 95 95 NNE 7 11 29.95 1014 7 11 N/A
5:15 am 05:15 Clear 64 18 63 17.2 95 95 NNE 7 11 29.95 1014 7 11 N/A
5:35 am 05:35 Partly Cloudy 64 18 63 17.2 95 95 NE 7 11 29.95 1014 7 11 N/A
5:55 am 05:55 Mostly Cloudy 65 18.2 64 17.5 96 96 NE 6 9 29.95 1014 7 11 N/A
6:15 am 06:15 Cloudy 65 18.3 64 17.5 95 95 NE 6 9 29.95 1014 7 11 N/A
6:35 am 06:35 Cloudy 65 18.6 64 17.6 94 94 ENE 7 11 29.95 1014 7 11 N/A
6:55 am 06:55 Cloudy 66 18.8 64 17.6 93 93 N N/A 29.95 1014 7 11 N/A
7:15 am 07:15 Cloudy 66 18.8 64 17.7 93 93 NE 5 7 29.95 1014 7 11 N/A
7:35 am 07:35 Cloudy 66 19.1 64 17.8 92 92 ENE 3 6 29.96 1015 10 16 N/A
7:55 am 07:55 Cloudy 67 19.3 64 18 92 92 ENE 6 9 29.96 1014 7 11 N/A
8:15 am 08:15 Cloudy with Mist and Fog 67 19.4 65 18.2 93 93 ENE 7 11 29.96 1014 5 8 N/A
8:35 am 08:35 Cloudy with Mist and Fog 67 19.5 65 18.2 92 92 ENE 8 13 29.96 1014 5 8 N/A
8:55 am 08:55 Cloudy with Mist and Fog 67 19.5 65 18.3 93 93 NE 3 6 29.96 1014 5 8 N/A
9:15 am 09:15 Cloudy with Mist and Fog 67 19.6 65 18.4 93 93 ENE 7 11 29.96 1014 5 8 N/A
9:35 am 09:35 Cloudy with Mist and Fog 68 19.9 65 18.5 92 92 ENE 9 15 29.96 1015 5 8 N/A
9:55 am 09:55 Cloudy with Mist and Fog 68 20 65 18.5 91 91 ENE 10 17 29.95 1014 5 8 N/A
10:15 am 10:15 Cloudy with Mist and Fog 68 20 65 18.6 92 92 ENE 9 15 29.96 1015 5 8 N/A
10:35 am 10:35 Cloudy 69 20.3 65 18.6 90 90 ENE 8 13 29.96 1015 7 11 N/A
10:55 am 10:55 Cloudy 69 20.3 66 18.7 91 91 ENE 7 11 29.96 1015 7 11 N/A
11:15 am 11:15 Cloudy 69 20.8 66 19 90 90 ENE 6 9 29.97 1015 7 11 N/A
11:35 am 11:35 Cloudy 69 20.8 66 19 90 90 ENE 5 7 29.97 1015 7 11 N/A
11:55 am 11:55 Cloudy 70 21.1 66 19.1 88 88 N N/A 29.96 1015 10 16 N/A
12:15 pm 12:15 Cloudy 71 21.9 67 19.4 86 86 ENE 6 9 29.96 1014 10 16 N/A
12:35 pm 12:35 Cloudy 72 22.4 67 19.5 84 84 NE 5 7 29.94 1014 10 16 N/A
12:55 pm 12:55 Cloudy 73 22.7 67 19.5 82 82 NE 3 6 29.94 1014 10 16 N/A
1:15 pm 13:15 Cloudy 74 23.5 67 19.6 79 79 E 5 7 29.93 1014 10 16 N/A
1:35 pm 13:35 Cloudy 75 24 67 19.6 76 76 ESE 3 6 29.93 1013 10 16 N/A
1:55 pm 13:55 Cloudy 76 24.4 67 19.7 75 75 ENE 6 9 29.91 1013 10 16 N/A
2:15 pm 14:15 Mostly Cloudy 77 25.2 68 20 73 73 SE 3 6 29.91 1013 10 16 N/A
2:35 pm 14:35 Cloudy 77 25.2 68 20.1 73 73 E 7 11 29.90 1012 10 16 N/A
2:55 pm 14:55 Cloudy 77 24.9 68 20 74 74 ESE 7 11 29.90 1013 10 16 N/A
3:15 pm 15:15 Cloudy 78 25.3 67 19.7 71 71 E 3 6 29.89 1012 10 16 N/A
3:35 pm 15:35 Partly Cloudy 78 25.6 68 20 71 71 E 8 13 29.88 1012 10 16 N/A
3:55 pm 15:55 Partly Cloudy 77 25.1 67 19.5 71 71 ESE 6 9 29.89 1012 10 16 N/A
4:15 pm 16:15 Mostly Cloudy 80 26.6 67 19.4 65 65 ESE 6 9 29.87 1011 10 16 N/A
4:35 pm 16:35 Partly Cloudy 78 25.8 66 19.1 67 67 ESE 6 9 29.86 1011 10 16 N/A
4:55 pm 16:55 Partly Cloudy 80 26.6 66 18.9 63 63 ESE 7 11 29.86 1011 10 16 N/A
5:15 pm 17:15 Sunny 79 26.2 66 18.8 64 64 SSE 5 7 29.85 1011 10 16 N/A
5:35 pm 17:35 Partly Cloudy 79 26.1 66 18.9 65 65 ESE 5 7 29.85 1011 10 16 N/A
5:55 pm 17:55 Partly Cloudy 80 26.5 66 18.8 63 63 E 8 13 29.84 1010 10 16 N/A
6:15 pm 18:15 Partly Cloudy 79 26.3 66 19.1 65 65 E 8 13 29.84 1010 10 16 N/A
6:35 pm 18:35 Sunny 79 26.3 68 19.8 68 68 ESE 8 13 29.84 1010 10 16 N/A
6:55 pm 18:55 Sunny 79 26 67 19.4 67 67 ESE 9 15 29.83 1010 10 16 N/A
7:15 pm 19:15 Partly Cloudy 78 25.3 68 20.1 73 73 ESE 13 20 29.85 1011 10 16 N/A
7:35 pm 19:35 Partly Cloudy 77 24.9 68 20 74 74 ESE 12 19 29.85 1011 10 16 N/A
7:55 pm 19:55 Sunny 76 24.5 67 19.7 75 75 ESE 10 17 29.85 1011 10 16 N/A
8:15 pm 20:15 Partly Cloudy 75 24.1 68 20.2 79 79 ESE 12 19 29.87 1011 10 16 N/A
8:35 pm 20:35 Partly Cloudy 74 23.4 68 20.2 82 82 ESE 9 15 29.87 1012 10 16 N/A
8:55 pm 20:55 Partly Cloudy 73 23 68 20.2 84 84 ESE 8 13 29.89 1012 10 16 N/A
9:15 pm 21:15 Partly Cloudy 72 22.4 68 20 86 86 ESE 8 13 29.88 1012 10 16 N/A
9:35 pm 21:35 Clear 71 21.8 68 20 90 90 E 5 7 29.90 1012 10 16 N/A
9:55 pm 21:55 Clear 71 21.5 68 20 91 91 E 6 9 29.91 1013 10 16 N/A
10:15 pm 22:15 Partly Cloudy 70 21 67 19.7 92 92 E 5 7 29.92 1013 10 16 N/A
10:35 pm 22:35 Mostly Cloudy 70 21.1 68 20 93 93 E 5 7 29.92 1013 10 16 N/A
10:55 pm 22:55 Cloudy 70 21 68 20 94 94 E 5 7 29.93 1014 10 16 N/A
11:15 pm 23:15 Mostly Cloudy 69 20.8 67 19.6 93 93 E 5 7 29.93 1013 10 16 N/A
11:35 pm 23:35 Partly Cloudy 68 20.1 67 19.3 95 95 E 5 7 29.94 1014 7 11 N/A
11:55 pm 23:55 Partly Cloudy 68 19.9 67 19.2 96 96 E 3 6 29.94 1014 7 11 N/A

Powered by AerisWeather